DW0937 Weather Reports


Display with metric or nautical units.
time (UTC)temp
F
wind
direction
speed
MPH
gust
MPH
rain 1hr
in
rain 24hr
in
rain mn
in
humidity
%
barometer
mb
20260508233626 72 303 3.0 12.0 0.00 0.00 0.00 24 1000.1
20260508233126 71 338 2.0 10.0 0.00 0.00 0.00 24 1000.0
20260508232845 71 288 1.0 7.0 0.00 0.00 0.00 24 1000.2
20260508232126 72 327 2.0 11.0 0.00 0.00 0.00 24 1000.2
20260508232110 72 311 2.0 11.0 0.00 0.00 0.00 24 1000.2
20260508231353 72 277 1.0 8.0 0.00 0.00 0.00 24 1000.3
20260508230628 71 288 0.0 2.0 0.00 0.00 0.00 25 1000.3
20260508230126 72 332 1.0 9.0 0.00 0.00 0.00 24 1000.2
20260508225627 72 289 1.0 9.0 0.00 0.00 0.00 24 1000.3
20260508225127 72 316 0.0 5.0 0.00 0.00 0.00 24 1000.3
20260508224627 72 274 1.0 6.0 0.00 0.00 0.00 25 1000.3
20260508224121 72 0 1.0 6.0 0.00 0.00 0.00 25 1000.3
20260508223841 72 311 1.0 6.0 0.00 0.00 0.00 24 1000.4
20260508223116 72 318 1.0 7.0 0.00 0.00 0.00 24 1000.5
20260508222617 73 259 1.0 12.0 0.00 0.00 0.00 23 1000.4
20260508222114 73 302 1.0 12.0 0.00 0.00 0.00 25 1000.4
20260508221615 72 218 0.0 4.0 0.00 0.00 0.00 25 1000.4
20260508221117 71 251 1.0 4.0 0.00 0.00 0.00 25 1000.5
20260508220614 72 340 1.0 5.0 0.00 0.00 0.00 23 1000.6
20260508220114 72 305 0.0 5.0 0.00 0.00 0.00 25 1000.6
20260508215614 72 311 1.0 9.0 0.00 0.00 0.00 24 1000.7
20260508215115 72 337 1.0 9.0 0.00 0.00 0.00 23 1000.8
20260508214614 73 250 1.0 6.0 0.00 0.00 0.00 24 1000.8
20260508214114 72 329 1.0 7.0 0.00 0.00 0.00 24 1000.8
20260508213617 72 5 1.0 7.0 0.00 0.00 0.00 23 1000.8
20260508213114 71 246 0.0 4.0 0.00 0.00 0.00 24 1000.9
20260508212612 71 308 1.0 8.0 0.00 0.00 0.00 23 1001.0
20260508212112 72 308 1.0 9.0 0.00 0.00 0.00 22 1001.1
20260508211610 72 314 1.0 9.0 0.00 0.00 0.00 23 1001.1
20260508211110 72 319 1.0 8.0 0.00 0.00 0.00 23 1001.2
20260508210610 71 0 1.0 8.0 0.00 0.00 0.00 22 1001.2
20260508210111 73 288 1.0 7.0 0.00 0.00 0.00 23 1001.3
20260508205610 73 252 1.0 8.0 0.00 0.00 0.00 24 1001.3
20260508205109 72 221 2.0 8.0 0.00 0.00 0.00 24 1001.4
20260508204609 72 297 1.0 6.0 0.00 0.00 0.00 23 1001.5
20260508204326 71 306 2.0 8.0 0.00 0.00 0.00 23 1001.7
20260508203609 72 331 2.0 10.0 0.00 0.00 0.00 23 1001.8
20260508203109 71 302 3.0 10.0 0.00 0.00 0.00 23 1001.8
20260508202607 72 271 4.0 18.0 0.00 0.00 0.00 24 1001.8
20260508202107 72 303 5.0 18.0 0.00 0.00 0.00 24 1002.0
20260508201606 73 257 2.0 12.0 0.00 0.00 0.00 22 1002.0
20260508201104 72 184 2.0 15.0 0.00 0.00 0.00 24 1002.1
20260508200600 71 289 3.0 15.0 0.00 0.00 0.00 24 1002.2
20260508200100 72 256 2.0 11.0 0.00 0.00 0.00 23 1002.2
20260508195602 72 242 2.0 11.0 0.00 0.00 0.00 22 1002.3
20260508195100 72 11 1.0 4.0 0.00 0.00 0.00 23 1002.3
20260508194559 71 321 1.0 6.0 0.00 0.00 0.00 26 1002.5
20260508194100 71 317 1.0 6.0 0.00 0.00 0.00 23 1002.7
20260508193600 71 310 1.0 8.0 0.00 0.00 0.00 23 1002.7
20260508193058 71 277 1.0 8.0 0.00 0.00 0.00 23 1002.8
20260508192821 70 337 1.0 5.0 0.00 0.00 0.00 23 1002.8
20260508192058 70 347 1.0 7.0 0.00 0.00 0.00 23 1002.9
20260508191559 71 243 1.0 11.0 0.00 0.00 0.00 22 1003.0
20260508191541 72 310 1.0 11.0 0.00 0.00 0.00 23 1003.0
20260508190557 71 350 1.0 12.0 0.00 0.00 0.00 23 1003.0
20260508190057 70 305 3.0 12.0 0.00 0.00 0.00 24 1003.0
20260508185553 71 262 3.0 12.0 0.00 0.00 0.00 23 1003.0
20260508185050 71 169 3.0 12.0 0.00 0.00 0.00 21 1003.1
20260508184550 71 265 3.0 12.0 0.00 0.00 0.00 23 1003.0
20260508184051 71 217 2.0 12.0 0.00 0.00 0.00 23 1003.2
20260508183550 71 273 2.0 11.0 0.00 0.00 0.00 26 1003.2
20260508183048 69 292 2.0 11.0 0.00 0.00 0.00 23 1003.4
20260508182549 70 340 1.0 6.0 0.00 0.00 0.00 22 1003.4
20260508182048 71 331 2.0 11.0 0.00 0.00 0.00 23 1003.4
20260508181546 69 302 2.0 11.0 0.00 0.00 0.00 23 1003.5
20260508181044 70 299 2.0 11.0 0.00 0.00 0.00 24 1003.7
20260508180545 70 302 2.0 11.0 0.00 0.00 0.00 24 1003.7
20260508180044 70 298 1.0 7.0 0.00 0.00 0.00 25 1003.8
20260508175543 70 303 1.0 7.0 0.00 0.00 0.00 25 1004.0
20260508175044 70 254 1.0 6.0 0.00 0.00 0.00 23 1004.0
20260508175030 69 254 1.0 9.0 0.00 0.00 0.00 26 1004.2
20260508174044 69 295 1.0 9.0 0.00 0.00 0.00 26 1004.3
20260508173542 68 275 2.0 8.0 0.00 0.00 0.00 25 1004.4
20260508173043 68 281 2.0 9.0 0.00 0.00 0.00 24 1004.5
20260508172543 69 303 2.0 10.0 0.00 0.00 0.00 27 1004.6
20260508172042 69 240 2.0 10.0 0.00 0.00 0.00 26 1004.7
20260508171542 68 238 3.0 11.0 0.00 0.00 0.00 26 1004.8
20260508171042 67 261 2.0 11.0 0.00 0.00 0.00 26 1004.9
20260508170542 67 298 2.0 11.0 0.00 0.00 0.00 26 1004.9
20260508170043 67 310 2.0 9.0 0.00 0.00 0.00 26 1005.0
20260508165543 66 300 2.0 9.0 0.00 0.00 0.00 27 1005.0
20260508165042 67 234 2.0 7.0 0.00 0.00 0.00 26 1005.1
20260508164543 66 303 2.0 9.0 0.00 0.00 0.00 28 1005.1
20260508164042 66 252 2.0 9.0 0.00 0.00 0.00 26 1005.2
20260508163541 66 313 1.0 7.0 0.00 0.00 0.00 28 1005.2
20260508163041 65 254 1.0 7.0 0.00 0.00 0.00 28 1005.3
20260508162537 64 267 1.0 12.0 0.00 0.00 0.00 33 1005.3
20260508162032 63 284 2.0 12.0 0.00 0.00 0.00 31 1005.4
20260508161526 63 234 2.0 8.0 0.00 0.00 0.00 32 1005.5
20260508161027 63 202 2.0 8.0 0.00 0.00 0.00 32 1005.5
20260508160525 63 231 1.0 8.0 0.00 0.00 0.00 32 1005.7
20260508160024 62 241 1.0 7.0 0.00 0.00 0.00 34 1005.7
20260508155740 62 301 1.0 7.0 0.00 0.00 0.00 35 1005.7
20260508155023 61 244 0.0 6.0 0.00 0.00 0.00 33 1005.8
20260508154526 61 234 0.0 5.0 0.00 0.00 0.00 34 1005.7
20260508154025 61 263 0.0 5.0 0.00 0.00 0.00 35 1005.8
20260508153525 60 223 0.0 6.0 0.00 0.00 0.00 35 1005.9
20260508153024 60 218 1.0 6.0 0.00 0.00 0.00 36 1005.9
20260508152523 59 258 2.0 9.0 0.00 0.00 0.00 36 1005.9
20260508152021 59 262 2.0 9.0 0.00 0.00 0.00 34 1005.9
20260508151523 59 266 1.0 11.0 0.00 0.00 0.00 35 1006.1
20260508151015 59 208 1.0 11.0 0.00 0.00 0.00 37 1006.2
20260508150508 59 274 2.0 10.0 0.00 0.00 0.00 36 1006.4
20260508150008 59 232 3.0 10.0 0.00 0.00 0.00 35 1006.5
20260508145734 59 229 2.0 9.0 0.00 0.00 0.00 35 1006.4
20260508145006 59 209 0.0 7.0 0.00 0.00 0.00 38 1006.4
20260508144506 59 309 1.0 8.0 0.00 0.00 0.00 37 1006.5
20260508144006 58 256 1.0 8.0 0.00 0.00 0.00 36 1006.5
20260508143508 57 200 0.0 7.0 0.00 0.00 0.00 40 1006.5
20260508143222 56 273 0.0 5.0 0.00 0.00 0.00 38 1006.5
20260508142504 56 175 0.0 3.0 0.00 0.00 0.00 40 1006.5
20260508142003 56 214 0.0 4.0 0.00 0.00 0.00 42 1006.6
20260508141500 55 241 1.0 6.0 0.00 0.00 0.00 41 1006.6
20260508141000 55 242 1.0 8.0 0.00 0.00 0.00 41 1006.6
20260508140459 54 211 1.0 8.0 0.00 0.00 0.00 41 1006.6
20260508135958 54 187 1.0 8.0 0.00 0.00 0.00 42 1006.6
20260508135457 54 302 1.0 5.0 0.00 0.00 0.00 40 1006.6
20260508134956 54 259 1.0 5.0 0.00 0.00 0.00 41 1006.7
20260508134457 54 225 1.0 7.0 0.00 0.00 0.00 40 1006.7
20260508133954 53 223 1.0 7.0 0.00 0.00 0.00 43 1006.8
20260508133719 53 238 0.0 6.0 0.00 0.00 0.00 42 1006.8
20260508132953 53 166 0.0 7.0 0.00 0.00 0.00 44 1006.8
20260508132456 53 210 1.0 7.0 0.00 0.00 0.00 45 1006.9
20260508131953 51 238 1.0 6.0 0.00 0.00 0.00 46 1006.9
20260508131454 49 240 1.0 6.0 0.00 0.00 0.00 46 1006.9
20260508130955 47 212 1.0 5.0 0.00 0.00 0.00 50 1006.9
20260508130942 46 225 0.0 5.0 0.00 0.00 0.00 51 1006.9
20260508125954 46 214 0.0 5.0 0.00 0.00 0.00 52 1007.0
20260508125454 45 228 0.0 5.0 0.00 0.00 0.00 52 1006.9
20260508125217 44 186 0.0 4.0 0.00 0.00 0.00 54 1007.0
20260508124454 44 220 0.0 4.0 0.00 0.00 0.00 54 1007.0
20260508123953 43 213 0.0 0.0 0.00 0.00 0.00 56 1007.0
20260508123454 43 189 0.0 0.0 0.00 0.00 0.00 56 1007.0
20260508122954 42 222 0.0 0.0 0.00 0.00 0.00 57 1006.9
20260508122454 42 219 0.0 0.0 0.00 0.00 0.00 57 1006.9
20260508121954 42 217 0.0 0.0 0.00 0.00 0.00 58 1006.9
20260508121454 41 219 0.0 0.0 0.00 0.00 0.00 58 1006.9
20260508120951 41 219 0.0 0.0 0.00 0.00 0.00 58 1006.9
20260508120452 41 219 0.0 0.0 0.00 0.00 0.00 58 1007.0
20260508115951 40 218 0.0 0.0 0.00 0.00 0.00 58 1006.9
20260508115449 40 218 0.0 0.0 0.00 0.00 0.00 58 1006.8
20260508114950 40 218 0.0 0.0 0.00 0.00 0.00 58 1006.8
20260508114450 40 218 0.0 0.0 0.00 0.00 0.00 57 1006.8
20260508113950 40 218 0.0 0.0 0.00 0.00 0.00 57 1006.9
20260508113715 40 218 0.0 0.0 0.00 0.00 0.00 57 1006.8
20260508112950 41 219 0.0 0.0 0.00 0.00 0.00 56 1006.8
20260508112449 41 219 0.0 0.0 0.00 0.00 0.00 55 1006.8
20260508112216 41 219 0.0 0.0 0.00 0.00 0.00 55 1006.9
20260508111448 41 219 0.0 0.0 0.00 0.00 0.00 55 1006.9
20260508110947 41 219 0.0 0.0 0.00 0.00 0.00 55 1006.9
20260508110448 41 219 0.0 0.0 0.00 0.00 0.00 55 1006.8
20260508105947 41 219 0.0 0.0 0.00 0.00 0.00 55 1006.8
20260508105445 41 219 0.0 0.0 0.00 0.00 0.00 54 1006.8
20260508104944 41 219 0.0 0.0 0.00 0.00 0.00 54 1006.8
20260508104444 41 219 0.0 0.0 0.00 0.00 0.00 54 1006.8
20260508103943 41 219 0.0 0.0 0.00 0.00 0.00 54 1006.8
20260508103441 41 219 0.0 0.0 0.00 0.00 0.00 54 1006.8
20260508102941 41 219 0.0 0.0 0.00 0.00 0.00 54 1006.8
20260508102704 41 219 0.0 0.0 0.00 0.00 0.00 54 1006.9
20260508101936 41 219 0.0 0.0 0.00 0.00 0.00 54 1006.9
20260508101430 41 221 0.0 0.0 0.00 0.00 0.00 54 1006.9
20260508100924 41 221 0.0 0.0 0.00 0.00 0.00 54 1006.9
20260508100425 41 248 0.0 0.0 0.00 0.00 0.00 54 1006.8
20260508095921 41 260 0.0 0.0 0.00 0.00 0.00 55 1006.9
20260508095421 41 260 0.0 0.0 0.00 0.00 0.00 55 1006.9
20260508094922 41 260 0.0 0.0 0.00 0.00 0.00 55 1006.9
20260508094421 41 260 0.0 0.0 0.00 0.00 0.00 55 1006.9
20260508093923 41 260 0.0 0.0 0.00 0.00 0.00 55 1006.9
20260508093420 41 260 0.0 0.0 0.00 0.00 0.00 56 1007.0
20260508092918 41 260 0.0 0.0 0.00 0.00 0.00 56 1007.0
20260508092416 41 260 0.0 0.0 0.00 0.00 0.00 57 1007.0
20260508091914 41 260 0.0 0.0 0.00 0.00 0.00 58 1007.0
20260508091411 41 260 0.0 0.0 0.00 0.00 0.00 58 1007.0
20260508091133 40 260 0.0 0.0 0.00 0.00 0.00 60 1007.0
20260508090412 40 260 0.0 0.0 0.00 0.00 0.00 60 1007.0
20260508085911 40 260 0.0 0.0 0.00 0.00 0.00 62 1007.0
20260508085635 41 260 0.0 0.0 0.00 0.00 0.00 62 1007.1
20260508084909 41 260 0.0 0.0 0.00 0.00 0.00 62 1007.1
20260508084410 41 260 0.0 0.0 0.00 0.00 0.00 66 1007.0
20260508083909 41 260 0.0 0.0 0.00 0.00 0.00 62 1007.0
20260508083410 41 260 0.0 0.0 0.00 0.00 0.00 62 1007.0
20260508083130 41 260 0.0 0.0 0.00 0.00 0.00 61 1007.0
20260508082405 42 260 0.0 0.0 0.00 0.00 0.00 62 1007.1
20260508081905 42 260 0.0 0.0 0.00 0.00 0.00 61 1007.1
20260508081628 42 260 0.0 0.0 0.00 0.00 0.00 61 1007.1
20260508080904 42 260 0.0 0.0 0.00 0.00 0.00 61 1007.2
20260508080403 42 260 0.0 0.0 0.00 0.00 0.00 61 1007.2
20260508075901 42 260 0.0 0.0 0.00 0.00 0.00 61 1007.2
20260508075359 42 260 0.0 0.0 0.00 0.00 0.00 61 1007.3
20260508074857 42 260 0.0 0.0 0.00 0.00 0.00 61 1007.3
20260508074358 42 260 0.0 0.0 0.00 0.00 0.00 61 1007.3
20260508074124 43 260 0.0 0.0 0.00 0.00 0.00 61 1007.3
20260508073352 43 260 0.0 0.0 0.00 0.00 0.00 61 1007.4
20260508072848 43 260 0.0 0.0 0.00 0.00 0.00 61 1007.4
20260508072348 43 260 0.0 0.0 0.00 0.00 0.00 61 1007.4
20260508071847 43 260 0.0 0.0 0.00 0.00 0.00 61 1007.4
20260508071347 43 260 0.0 0.0 0.00 0.00 0.00 59 1007.4
20260508071329 43 260 0.0 0.0 0.00 0.00 0.00 59 1007.5
20260508070348 43 260 0.0 0.0 0.00 0.00 0.00 58 1007.5
20260508065847 44 260 0.0 0.0 0.00 0.00 0.00 57 1007.5
20260508065345 44 260 0.0 0.0 0.00 0.00 0.00 57 1007.5
20260508064845 44 260 0.0 0.0 0.00 0.00 0.00 56 1007.5
20260508064342 44 260 0.0 0.0 0.00 0.00 0.00 57 1007.6
20260508063840 44 260 0.0 0.0 0.00 0.00 0.00 56 1007.6
20260508063338 44 260 0.0 0.0 0.00 0.00 0.00 56 1007.7
20260508062835 44 260 0.0 0.0 0.00 0.00 0.00 55 1007.7
20260508062333 44 260 0.0 0.0 0.00 0.00 0.00 55 1007.8
20260508061831 44 260 0.0 0.0 0.00 0.00 0.00 55 1007.8
20260508061331 45 260 0.0 0.0 0.00 0.00 0.00 55 1007.8
20260508060824 45 260 0.0 0.0 0.00 0.00 0.00 55 1007.8
20260508060318 45 260 0.0 0.0 0.00 0.00 0.00 54 1007.8
20260508055812 45 260 0.0 0.0 0.00 0.00 0.00 55 1007.8
20260508055312 45 260 0.0 0.0 0.00 0.00 0.00 54 1007.9
20260508054811 45 260 0.0 0.0 0.00 0.00 0.00 54 1007.9
20260508054309 45 260 0.0 0.0 0.00 0.00 0.00 54 1007.9
20260508053809 46 260 0.0 0.0 0.00 0.00 0.00 53 1007.9
20260508053309 46 260 0.0 0.0 0.00 0.00 0.00 53 1007.9
20260508053027 46 260 0.0 0.0 0.00 0.00 0.00 53 1008.0
20260508052307 46 260 0.0 0.0 0.00 0.00 0.00 53 1008.0
20260508052029 46 260 0.0 0.0 0.00 0.00 0.00 53 1007.9
20260508051304 46 260 0.0 0.0 0.00 0.00 0.00 51 1008.0
20260508050801 46 260 0.0 0.0 0.00 0.00 0.00 51 1007.9
20260508050301 46 260 0.0 0.0 0.00 0.00 0.00 50 1008.0
20260508045758 47 260 0.0 0.0 0.00 0.00 0.00 49 1008.0
20260508045519 47 260 0.0 0.0 0.00 0.00 0.00 49 1008.1
20260508044758 47 260 0.0 0.0 0.00 0.00 0.00 48 1008.1
20260508044254 47 260 0.0 0.0 0.00 0.00 0.00 48 1008.1
20260508043754 47 260 0.0 0.0 0.00 0.00 0.00 48 1008.2
20260508043254 47 260 0.0 0.0 0.00 0.00 0.00 48 1008.2
20260508042750 47 260 0.0 0.0 0.00 0.00 0.00 47 1008.2
20260508042249 47 260 0.0 0.0 0.00 0.00 0.00 47 1008.2
20260508041750 47 260 0.0 0.0 0.00 0.00 0.00 46 1008.3
20260508041248 47 260 0.0 0.0 0.00 0.00 0.00 46 1008.3
20260508041012 47 260 0.0 0.0 0.00 0.00 0.00 46 1008.3
20260508040249 47 260 0.0 0.0 0.00 0.00 0.00 45 1008.3
20260508035750 48 260 0.0 0.0 0.00 0.00 0.00 45 1008.3
20260508035246 48 260 0.0 0.0 0.00 0.00 0.00 45 1008.4
20260508034746 48 260 0.0 0.0 0.00 0.00 0.00 46 1008.4
20260508034507 48 260 0.0 0.0 0.00 0.00 0.00 45 1008.5
20260508033744 48 260 0.0 0.0 0.00 0.00 0.00 45 1008.5
20260508033243 48 260 0.0 0.0 0.00 0.00 0.00 43 1008.6
20260508032741 49 260 0.0 0.0 0.00 0.00 0.00 44 1008.5
20260508032240 49 260 0.0 0.0 0.00 0.00 0.00 44 1008.5
20260508031739 49 260 0.0 0.0 0.00 0.00 0.00 43 1008.5
20260508031239 49 260 0.0 0.0 0.00 0.00 0.00 43 1008.6
20260508030959 49 260 0.0 0.0 0.00 0.00 0.00 43 1008.6
20260508030238 49 260 0.0 0.0 0.00 0.00 0.00 42 1008.6
20260508025737 49 260 0.0 0.0 0.00 0.00 0.00 41 1008.6
20260508025237 50 260 0.0 0.0 0.00 0.00 0.00 41 1008.6
20260508024736 50 260 0.0 0.0 0.00 0.00 0.00 41 1008.6
20260508024237 50 260 0.0 0.0 0.00 0.00 0.00 40 1008.5
20260508023738 50 260 0.0 0.0 0.00 0.00 0.00 40 1008.6
20260508023238 50 260 0.0 0.0 0.00 0.00 0.00 40 1008.5
20260508022736 51 260 0.0 0.0 0.00 0.00 0.00 39 1008.5
20260508022237 51 260 0.0 0.0 0.00 0.00 0.00 38 1008.5
20260508022003 51 260 0.0 0.0 0.00 0.00 0.00 38 1008.5
20260508021239 52 260 0.0 0.0 0.00 0.00 0.00 38 1008.4
20260508020736 52 260 0.0 0.0 0.00 0.00 0.00 37 1008.4
20260508020236 52 260 0.0 0.0 0.00 0.00 0.00 36 1008.3
20260508015736 53 260 0.0 0.0 0.00 0.00 0.00 34 1008.3
20260508015237 53 260 0.0 0.0 0.00 0.00 0.00 33 1008.2
20260508015003 53 260 0.0 0.0 0.00 0.00 0.00 33 1008.2
20260508014236 54 260 0.0 0.0 0.00 0.00 0.00 32 1008.1
20260508013737 54 260 0.0 0.0 0.00 0.00 0.00 31 1008.1
20260508013237 55 261 0.0 0.0 0.00 0.00 0.00 31 1008.1
20260508012736 55 261 0.0 0.0 0.00 0.00 0.00 30 1008.1
20260508012234 55 261 0.0 1.0 0.00 0.00 0.00 30 1008.0
20260508011736 55 259 0.0 1.0 0.00 0.00 0.00 30 1008.0
20260508011234 56 250 0.0 1.0 0.00 0.00 0.00 30 1008.0
20260508010734 56 230 0.0 0.0 0.00 0.00 0.00 29 1008.0
20260508010453 56 252 0.0 3.0 0.00 0.00 0.00 29 1008.0
20260508005728 56 252 0.0 6.0 0.00 0.00 0.00 28 1008.0
20260508005219 57 269 0.0 6.0 0.00 0.00 0.00 28 1008.0
20260508004711 57 233 0.0 4.0 0.00 0.00 0.00 28 1008.0
20260508004211 57 290 0.0 4.0 0.00 0.00 0.00 28 1008.0
20260508003710 58 327 0.0 3.0 0.00 0.00 0.00 27 1008.0
20260508003210 58 327 0.0 3.0 0.00 0.00 0.00 27 1008.0
20260508002937 58 267 0.0 2.0 0.00 0.00 0.00 27 1008.0
20260508002207 59 265 0.0 2.0 0.00 0.00 0.00 26 1008.0
20260508001708 59 302 0.0 3.0 0.00 0.00 0.00 27 1008.1
20260508001205 59 293 0.0 3.0 0.00 0.00 0.00 26 1008.0
20260508000703 59 313 0.0 3.0 0.00 0.00 0.00 27 1008.0
20260508000205 60 267 0.0 2.0 0.00 0.00 0.00 27 1008.0
20260507235703 60 250 0.0 2.0 0.00 0.00 0.00 26 1008.1
20260507235203 60 307 0.0 7.0 0.00 0.00 0.00 26 1008.2
20260507234702 60 289 0.0 7.0 0.00 0.00 0.00 27 1008.2
20260507234202 60 210 1.0 6.0 0.00 0.00 0.00 26 1008.2